www.pogodaiklimat.ru

Погода и климат >> Архив погоды >> Индонезия >> Горонтало


ПОГОДА в Горонтало

  • Прогноз погоды в Горонтало
  • Монитор погоды в Горонтало

АРХИВ ПОГОДЫ в Горонтало

Время (UTC), дата Ветер
(напр.,м/с)
 
Видим.   Явления Облачность Т
(С)
Тd
(С)
f
(%)
Тe
(С)
Тes
(С)
Комфортность P
(гПа)
Po
(гПа)
Тmin
(С)
Tmax
(С)
R
(мм)
R24
(мм)
S
(см)
03 14.06 ЮВ 2 10 км 6/4 500 м
[Cu med, cong Ac As Ci fib]
+30.3 +25.6 76 +45 +54 опасность
перегрева
1009.0 1006.8
06 14.06 В 2 10 км 6/4 500 м
[Cu med, cong Ac trans Ci fib]
+31.7 +25.6 70 +46 +54 опасность
перегрева
1005.8 1003.7
09 14.06 С 1 8000 м 8/6 450 м
[Cb cap Ac trans Ci fib]
+29.1 +26.1 84 +44 +44 опасность
перегрева
1006.4 1004.2
12 14.06 З 2 8000 м в посл. час дождь 6/6 450 м
[Cu med, cong Ac trans Ci fib]
+24.4 +24.2 99 +34 +34 очень
душно
1008.6 1006.4 +32.5 4
15 14.06 штиль 0 7000 м 6/6 450 м
[Cu Sc Ac trans Ci fib]
+25.2 +25.0 99 +36 +36 очень
душно
1009.7 1007.5
18 14.06 штиль 0 7000 м 6/6 360 м
[Cu med, cong Ac trans Ci fib]
+25.2 +25.0 99 +36 +36 очень
душно
1008.4 1006.2
21 14.06 7000 м н/о +25.0 +24.8 99 +35 +35 очень
душно
1008.1 1005.9
00 15.06 ЮЗ 2 7000 м слаб. дождь 9/8 420 м
[Cb cap Ac trans Ci sp]
+26.3 +25.6 96 +39 +39 очень
душно
1010.0 1007.9 +24.4 0.9 4
03 15.06 В 2 7000 м {дождь} 10/6 300 м
[Cb cap Ac As Ci sp]
+27.9 +25.8 88 +41 +45 опасность
перегрева
1010.2 1008.0 0.0
06 15.06 Ю 3 7000 м в посл. час дождь 10/6 300 м
[Cb cap Ac As Ci sp]
+28.0 +25.5 86 +41 +43 опасность
перегрева
1008.0 1006.9 0.3
09 15.06 ЮВ 3 6000 м осадки на расстоянии 10/6 300 м
[Cb cap Ac As Ci sp]
+25.6 +24.4 93 +36 +36 очень
душно
1008.8 1006.7
12 15.06 штиль 0 7000 м в посл. час дождь 9/8 450 м
[Cu Sc Ac trans Ci fib]
+24.6 +24.4 99 +34 +34 очень
душно
1010.6 1008.5 +27.1 1
15 15.06 штиль 0 10 км 9/8 450 м
[Cu med, cong Ac As Ci fib]
+24.6 +23.9 96 +34 +34 очень
душно
1011.5 1009.4
18 15.06 штиль 0 10 км 9/5 500 м
[Cu med, cong Ac As Ci fib]
+24.4 +24.0 98 +34 +34 очень
душно
1009.4 1007.3
21 15.06 штиль 0 10 км 9/5 500 м
[Cu med, cong Ac As Ci fib]
+23.9 +23.5 98 +32 +32 очень
душно
1009.3 1007.1
00 16.06 штиль 0 10 км 9/5 540 м
[Cu med, cong Ac trans Ci fib]
+26.2 +24.4 90 +37 +39 очень
душно
1010.5 1008.4 +23.7
03 16.06 СЗ 1 10 км 8/4 540 м
[Cu med, cong Ac trans Ci fib]
+29.4 +24.5 75 +42 +50 опасность
перегрева
1010.1 1007.9
06 16.06 Ю 2 10 км 8/4 540 м
[Cu med, cong Ac trans Ci fib]
+32.2 +24.2 63 +44 +50 опасность
перегрева
1007.1 1004.9
09 16.06 СВ 2 7000 м слаб. дождь {гроза} 9/5 450 м
[Cb cap Ac As Ci sp]
+25.1 +24.6 97 +35 +35 очень
душно
1007.9 1005.8 13
12 16.06 штиль 0 8000 м {дождь} 8/4 480 м
[Cu med, cong Ac As Ci sp]
+24.9 +24.8 99 +35 +35 очень
душно
1009.1 1007.0 +32.4 0.8
15 16.06 штиль 0 8000 м 9/3 450 м
[Sc Ac As Ci sp]
+24.3 +23.9 98 +33 +33 очень
душно
1010.7 1008.5
18 16.06 штиль 0 5000 м слаб. дождь 9/4 450 м
[Cu med, cong Ac As Ci sp]
+24.4 +24.3 99 +34 +34 очень
душно
1009.8 1007.7 0.0
21 16.06 штиль 0 7000 м {дождь} 9/4 450 м
[Cu med, cong Ac As Ci sp]
+24.4 +24.3 99 +34 +34 очень
душно
1009.4 1007.3 0.0
00 17.06 штиль 0 7000 м {дождь} 10/5 360 м
[Cu med, cong Ac As Ci fib]
+25.8 +24.7 94 +37 +38 очень
душно
1011.1 1008.7 +24.1
03 17.06 В 2 10 км осадки на расстоянии 9/5 500 м
[Cb cap Ac As Ci fib]
+28.4 +25.1 82 +41 +47 опасность
перегрева
1010.6 1008.2
06 17.06 ЮВ 3 6000 м осадки на расстоянии 8/5 500 м
[Cb cap Ac trans Ci fib]
+31.2 +26.3 75 +47 +51 опасность
перегрева
1008.2 1005.9
09 17.06 В 1 10 км 8/5 500 м
[Cb cap Ac trans Ci fib]
+27.8 +24.6 83 +39 +40 очень
душно
1009.6 1007.4
12 17.06 штиль 0 8000 м 9/4 600 м
[Cu med, cong Ac trans Ci fib]
+26.2 +24.7 91 +37 +37 очень
душно
1010.1 1008.0 +26.2
15 17.06 штиль 0 8000 м 9/4 540 м
[Cu med, cong Ac trans Ci fib]
+24.4 +24.0 98 +34 +34 очень
душно
1010.9 1008.8
18 17.06 штиль 0 8000 м 9/4 540 м
[Cu med, cong Ac trans Ci fib]
+25.0 +24.6 98 +35 +35 очень
душно
1009.7 1007.4
21 17.06 штиль 0 500 м 9/4 300 м
[Cu med, cong Ac trans Ci fib]
+24.0 +23.6 98 +33 +33 очень
душно
1009.8 1007.7
00 18.06 штиль 0 8000 м 9/6 300 м
[Cu med, cong Ac trans Ci fib]
+26.1 +25.7 98 +38 +40 очень
душно
1010.7 1008.6 +23.2
03 18.06 Ю 2 10 км 6/5 600 м
[Cu med, cong Ac trans Ci fib]
+31.4 +24.9 68 +45 +53 опасность
перегрева
1009.5 1007.3
06 18.06 Ю 1 10 км 6/5 600 м
[Cu med, cong Ac trans Ci fib]
+31.8 +22.8 59 +42 +49 опасность
перегрева
1007.3 1005.2
09 18.06 З 3 10 км осадки на расстоянии 6/5 600 м
[Cb cap Ac trans Ci fib]
+29.2 +24.0 74 +41 +41 опасность
перегрева
1007.4 1005.1
12 18.06 штиль 0 8000 м {дождь} 8/5 500 м
[Cu med, cong Ac trans Ci fib]
+25.3 +24.5 95 +35 +35 очень
душно
1008.9 1006.5 +32.5 0.2
15 18.06 штиль 0 8000 м 8/5 500 м
[Cu med, cong Ac trans Ci fib]
+24.7 +24.3 98 +34 +34 очень
душно
1009.4 1007.0
18 18.06 штиль 0 8000 м 8/5 500 м
[Cu med, cong Ac trans Ci fib]
+24.1 +23.7 98 +33 +33 очень
душно
1008.3 1005.9
21 18.06 штиль 0 8000 м 8/5 500 м
[Cu med, cong Ac trans Ci fib]
+23.6 +23.4 99 +32 +32 очень
душно
1008.5 1006.3
00 19.06 штиль 0 10 км 6/5 500 м
[Cu med, cong Ac trans Ci fib]
+27.0 +24.6 87 +38 +42 очень
душно
1009.9 1007.7 +22.9 0.2
03 19.06 ЮВ 1 10 км 6/5 500 м
[Cu med, cong Ac As Ci fib]
+30.4 +24.4 70 +42 +52 опасность
перегрева
1008.5 1006.4
06 19.06 ЮВ 2 10 км 6/4 500 м
[Cu med, cong Ac trans Ci fib]
+31.9 +25.7 70 +47 +54 опасность
перегрева
1006.1 1004.0
09 19.06 ЮВ 4 10 км 6/5 480 м
[Cb cap Ac trans Ci sp]
+29.0 +24.1 75 +40 +41 очень
душно
1008.3 1004.2
12 19.06 штиль 0 10 км 8/6 500 м
[Cu med, cong Ac trans Ci fib]
+27.0 +24.8 88 +39 +39 очень
душно
1008.5 1006.4 +32.8
15 19.06 штиль 0 7000 м 8/6 450 м
[Cu med, cong Ac trans Ci fib]
+25.4 +25.0 98 +36 +36 очень
душно
1009.0 1006.9
18 19.06 штиль 0 7000 м 8/5 450 м
[Cu med, cong Ac trans Ci fib]
+25.4 +25.2 99 +37 +37 очень
душно
1008.3 1006.1
21 19.06 штиль 0 7000 м 8/6 300 м
[Cu med, cong Ac trans Ci fib]
+25.4 +25.2 99 +37 +37 очень
душно
1008.1 1006.0 0.0
00 20.06 З 2 8000 м осадки на расстоянии 9/6 420 м
[Cb cap Ac As Ci fib]
+27.0 +25.2 90 +39 +41 очень
душно
1010.1 1007.9 +24.9 0.2
03 20.06 Ю 4 8000 м осадки на расстоянии 8/6 450 м
[Cb cap Ac As Ci fib]
+30.1 +24.2 71 +42 +46 опасность
перегрева
1009.3 1007.2 0.0
06 20.06 ЮЗ 3 4000 м слаб. дождь {гроза} 9/6 450 м
[Cb cap Ac As Ci sp]
+25.9 +25.7 99 +38 +41 очень
душно
1006.1 1008.3 0.6
09 20.06 ЮВ 2 9000 м {дождь} 8/6 500 м
[Cu med, cong Ac As Ci fib]
+27.5 +24.1 82 +38 +39 очень
душно
1007.7 1005.6 0.1
12 20.06 штиль 0 10 км {дождь} 8/5 500 м
[Cu med, cong Ac As Ci fib]
+26.8 +23.2 81 +36 +36 очень
душно
1009.5 1007.4 +30.4 0.1
15 20.06 штиль 0 10 км 8/5 500 м
[Cu med, cong Ac As Ci fib]
+27.0 +23.0 79 +36 +36 очень
душно
1009.7 1007.5
18 20.06 штиль 0 10 км 8/5 500 м
[Cu med, cong Ac As Ci fib]
+25.4 +22.4 83 +33 +33 очень
душно
1008.5 1006.4
21 20.06 штиль 0 10 км 8/5 500 м
[Cu med, cong Ac As Ci fib]
+24.4 +23.0 92 +32 +32 очень
душно
1008.0 1006.4

 

Местоположение метеостанции Горонтало (Индонезия): широта 0.52 долгота 123.06 высота над уровнем моря 2 м.

В архиве по умолчанию представлена погода в Горонтало за последнюю неделю. Архивные данные за месяц целиком и за предыдущие месяцы, начиная с января 2011 года, Вы можете получить, выбрав интересующий диапазон дат из раскрывающегося списка и нажав кнопку "Ввод!".


*Определитесь, кто Вы:
робот инопланетянин человек

Внимание! Время в таблицах - всемирное. Для получения местного времени необходимо прибавить поправку, которая равна 8 ч.

Смотрите также архив погоды в соседних городах и на ближайших метеорологических станциях:

Погода в Лувуке (Индонезия) (161 км)
Погода в Менадо (Индонезия) (234 км)
Погода в Битунге (Индонезия) (257 км)
Погода в Толи-Толи (Индонезия) (257 км)
Погода в Посо (Индонезия) (334 км)
Погода в Палу (Индонезия) (394 км)
Погода на Санане (Индонезия) (436 км)
Погода в Масамбе (Индонезия) (455 км)
Погода в Тернате (Индонезия) (479 км)
Погода в Лабухе (Индонезия) (510 км)

Пояснения к столбцам:

Ветер - указаны скорость ветра в м/с - средняя за 10 мин, порывы в срок и между сроками (в фигурных скобках) и направление, откуда дует ветер: С - северный, СВ - северо-восточный, В - восточный, ЮВ - юго-восточный, Ю - южный, ЮЗ - юго-западный, З - западный, СЗ - северо-западный.
Видимость - горизонтальная дальность видимости в метрах или километрах. При видимости от 1 до 10 км при отсутствии осадков обычно наблюдается дымка, при ухудшении видимости до 1 км и менее - туман. В сухую погоду видимость может ухудшаться дымом, пылью или мглою.
Явления - указаны атмосферные явления, наблюдавшиеся в срок или в последний час перед сроком; фигурными скобками обозначены явления, наблюдавшиеся между сроками (за 1-3 часа до срока); квадратными скобками обозначены град или гололедные отложения с указанием их диаметра в мм.
Облачность - указаны через наклонную черту общая и нижняя облачность в баллах и высота нижней границы облаков в метрах; квадратными скобками обозначены формы облаков: Ci - перистые, Cs - перисто-слоистые, Cc - перисто-кучевые, Ac - высококучевые, As - высокослоистые, Sc - слоисто-кучевые, Ns - слоисто-дождевые, Cu - кучевые, Cb - кучево-дождевые. Подробнее классификацию облаков см. в Атласе облаков (PDF).
T - Температура воздуха - температура, измеренная на высоте 2 м над землей.
Td - Температура точки росы - температура, при понижении до которой содержащийся в воздухе водяной пар достигнет насыщения.
f - Относительная влажность воздуха - влажноcть воздуха, измеренная на высоте 2 м над землей.
Te - Эффективная температура - температура, которую ощущает одетый по сезону человек в тени. Характеристика душности погоды. При расчете учитывается влияние влажности воздуха и скорости ветра на теплоощущения человека.
Tes - Эффективная температура на солнце - температура, которую ощущает человек, с поправкой на солнечный нагрев. Характеристика знойности погоды. Зависит от высоты солнца над горизонтом, облачности и скорости ветра. Ночью, в пасмурную погоду, а также при ветре 12 м/с и более поправка равна нулю.
P - Атмосферное давление - приведенное к уровню моря атмосферное давление.
Po - Атмосферное давление - измеренное на уровне метеостанции атмосферное давление.
Tmin - Минимальная температура - минимум температуры воздуха на высоте 2 м над землей.
Tmax - Максимальная температура - максимум температуры воздуха на высоте 2 м над землей.
R - Количество осадков - Количество выпавших осадков за период времени, мм. При наведении курсора мыши на число - период времени, за который выпало указанное количество осадков.
R24 - Количество осадков - Количество выпавших осадков за 24 часа, мм.
S - Снежный покров - Высота снежного покрова, см. При наведении курсора мыши на число - состояние снежного покрова и степень покрытия местности в баллах.